CAPE
445 362 270 240 223 88 10 0 0 0 0 0 0 0 0 0 0 5 116 367 880 1041 1127 1239 1391 1664 1919 2128 2176 2204 2238 2298 2335 2327 2224 2037 2084 2232 2367 2450 2437 2392 2389 2364 2320 2358 2433 2408 2408 2483 2580 2656 2715 2656 2554 2575 2454 2462 2342 2333 2460 2425 2178 2199 2254 2342 2356 2368 2444 2573 2670 2789 2858 3077 3067 3035 2971 2944 3054 3229 3332 3420 3442 3455 3453
440 396 239 155 124 94 57 0 0 0 0 0 0 0 0 0 0 0 11 151 512 952 1074 1185 1273 1359 1590 1904 2091 2148 2179 2208 2240 2256 2148 2068 2114 2157 2213 2323 2419 2418 2430 2436 2384 2338 2392 2477 2473 2451 2457 2513 2683 2788 2780 2848 2675 2557 2406 2387 2489 2568 2467 2370 2404 2459 2526 2549 2658 2723 2772 2872 3002 2951 2994 2987 2919 2939 3202 3379 3466 3514 3492 3437 3380
404 424 314 154 70 41 30 17 0 0 0 0 0 0 0 0 0 0 0 4 215 786 973 1098 1241 1349 1436 1637 1893 2040 2100 2129 2144 2209 2198 2116 2120 2150 2198 2222 2277 2376 2421 2454 2449 2478 2527 2536 2528 2457 2381 2361 2463 2661 2746 2764 2816 2772 2693 2611 2514 2597 2646 2627 2636 2641 2667 2730 2739 2740 2760 2778 2816 2866 2970 2939 2885 3038 3334 3468 3567 3637 3554 3351 3244
432 457 422 306 142 46 19 7 1 0 0 0 0 0 0 0 7 0 0 0 5 232 670 924 1095 1266 1425 1573 1729 1891 2004 2072 2089 2129 2194 2173 2124 2105 2157 2248 2272 2257 2295 2309 2304 2407 2538 2601 2615 2524 2395 2319 2296 2452 2577 2676 2770 2856 2824 2746 2650 2640 2687 2756 2780 2771 2802 2802 2786 2759 2751 2723 2766 2801 2713 2677 2974 3321 3403 3528 3633 3642 3382 3066 2979
452 534 526 463 318 176 74 24 11 1 0 0 0 0 0 0 7 41 18 0 0 18 227 230 435 927 1156 1375 1618 1776 1889 1990 2055 2091 2154 2178 2144 2126 2127 2183 2270 2316 2303 2250 2427 2215 2367 2523 2606 2579 2516 2422 2386 2344 2420 2465 2552 2724 2808 2783 2704 2758 2781 2797 2803 2813 2829 2847 2828 2767 2747 2740 2679 2573 2560 2919 3200 3307 3390 3500 3542 3360 2935 2734 3037
406 552 624 587 502 361 228 127 58 19 2 0 0 0 0 0 0 9 97 65 27 12 69 249 330 226 272 596 1041 1464 1708 1861 1984 2056 2117 2186 2207 2210 2232 2247 2285 2342 2372 2372 2315 2245 2260 2399 2537 2595 2583 2533 2510 2525 2531 2452 2433 2534 2609 2650 2666 2699 2728 2715 2682 2695 2748 2798 2798 2804 2725 2683 2646 2619 2775 3082 3240 3305 3312 3279 3086 2695 2600 2826 3128
443 506 517 563 602 639 664 650 599 102 41 4 0 0 0 0 0 0 32 142 137 111 93 151 405 382 312 321 481 952 1379 1676 1866 1993 2080 2159 2234 2266 2301 2338 2376 2392 2411 2456 2476 2435 2378 2358 2397 2468 2527 2558 2578 2637 2699 2694 2556 2441 2525 2557 2608 2678 2743 2743 2701 2631 2612 2647 2696 2755 2784 2796 2799 2823 2930 3008 3103 3222 3152 2907 2627 2558 2746 2925 3321
543 539 549 596 665 730 767 783 774 729 674 366 21 0 0 0 0 0 0 28 163 194 190 167 221 459 466 432 441 631 1026 1407 1692 1876 2000 2116 2221 2294 2331 2358 2386 2404 2440 2474 2517 2548 2560 2545 2480 2414 2374 2366 2393 2466 2567 2687 2687 2606 2526 2538 2578 2647 2730 2796 2803 2750 2664 2622 2644 2748 2827 2908 2907 2954 2937 2878 2816 2671 2725 2754 2768 2757 2871 3040 3368
755 647 603 633 714 775 830 874 898 910 912 900 773 157 8 0 0 0 0 0 27 141 212 234 219 282 481 659 646 680 842 1155 1480 1717 1888 2015 2143 2256 2329 2377 2376 2379 2392 2407 2433 2476 2528 2563 2588 2571 2531 2784 2514 2376 2300 2380 2460 2522 2573 2596 2635 2665 2729 2774 2784 2750 2689 2610 2616 2660 2770 2822 2785 2710 2636 2616 2674 2726 2823 2921 2880 2842 2889 3073 3272
1029 967 900 858 778 818 872 932 983 1016 1041 1074 1078 1008 825 231 0 0 0 0 0 17 93 186 266 261 306 531 743 814 853 993 1355 1568 1758 1883 2006 2137 2246 2309 2359 2369 2368 2358 2360 2348 2328 2353 2406 2920 2767 2621 2636 2542 2490 2432 2461 2399 2405 2399 2410 2423 2452 2508 2553 2582 2567 2540 2556 2620 2683 2686 2640 2596 2597 2630 2723 2851 2851 2843 2795 2832 2977 3089 2859
1264 1191 1119 1056 1034 963 931 995 1059 1089 1111 1157 1208 1220 1171 1039 816 300 0 0 0 6 58 86 184 287 304 334 532 794 931 991 1123 1354 1622 1804 1873 1980 2088 2184 2270 2341 2352 2358 2346 2310 2270 2247 2213 2527 3203 3407 2759 2668 2670 2691 2702 2693 2690 2728 2777 2744 2690 2614 2498 2439 2446 2473 2531 2602 2651 2650 2628 2601 2640 2707 2765 2788 2792 2768 2817 2853 2951 2929 2516
1473 1414 1341 1272 1215 1175 1154 1070 1118 1172 1203 1236 1292 1329 1322 1279 1188 1032 779 121 4 3 34 78 114 195 290 333 399 602 837 989 1082 1186 1371 1620 1795 1850 1923 2001 2104 2202 2268 2303 2306 2279 2232 2174 2122 2063 2038 2201 2561 2746 2771 2738 2712 2718 2754 2815 2863 2879 2843 2766 2649 2575 2539 2526 2527 2520 2518 2562 2570 2563 2638 2670 2662 2674 2738 2687 2622 2736 2877 2435 1922
1750 1666 1610 1546 1459 1389 1320 1285 1264 1265 1295 1320 1370 1413 1422 1396 1367 1309 1155 947 578 74 87 103 152 187 265 319 372 504 742 926 1078 1160 1231 1360 1594 1758 1781 1860 1928 2008 2102 2165 2196 2199 2186 2142 2082 2009 1956 2450 2869 2520 2432 2470 2530 2594 2637 2663 2677 2676 2668 2660 2650 2632 2647 2652 2667 2656 2602 2560 2570 2610 2591 2649 2704 2710 2572 2389 2255 2423 2622 2467 2299
2032 1960 1911 1833 1721 1640 1561 1502 1468 1430 1429 1414 1467 1523 1530 1516 1513 1568 1528 1385 1111 767 396 228 234 265 323 362 422 463 548 826 1038 1171 1243 1297 1385 1551 1644 1723 1776 1842 1920 2004 2063 2098 2118 2104 2052 1967 1893 1927 2041 2248 2388 2483 2506 2516 2537 2543 2526 2507 2474 2477 2569 2659 2696 2747 2741 2708 2677 2613 2607 2569 2540 2546 2585 2632 2522 2382 2450 2943 3180 3173 2797
2234 2287 2216 2122 2024 1936 1819 1735 1684 1648 1635 1586 1615 1635 1629 1661 1693 1930 1932 1804 1570 1269 839 453 419 479 487 522 522 544 587 755 921 1118 1257 1347 1396 1450 1504 1589 1664 1719 1779 1852 1935 2002 2037 2040 2021 1954 1866 1786 1765 1860 2016 2189 2357 2474 2511 2531 2538 2555 2573 2565 2513 2435 2358 2365 2415 2532 2620 2647 2632 2636 2674 2723 2767 2759 2648 2365 2854 3333 3458 3449 3319
2087 2293 2425 2450 2300 2160 2051 1972 1906 1891 1849 1786 1794 1810 1825 1838 1910 2248 2472 2266 2033 1730 1295 932 664 679 679 668 718 758 771 792 864 991 1172 1327 1439 1510 1560 1574 1625 1687 1721 1762 1823 1895 1953 1994 1998 1967 1922 1856 1808 1786 1860 1905 1970 2068 2151 2218 2266 2278 2271 2240 2204 2205 2258 2303 2296 2208 2105 2248 2418 2548 2636 2718 2768 2678 2489 2410 3048 3311 3268 3200 3181
1850 1983 2164 2366 2459 2353 2244 2147 2105 2076 2051 2023 1993 2035 2043 2074 2144 2368 2745 2737 2464 2055 1653 1214 862 844 869 870 869 883 906 929 950 977 1054 1202 1353 1483 1577 1628 1664 1691 1717 1734 1765 1813 1856 1890 1915 1910 1886 1874 1871 1859 1862 1872 1887 1926 1960 1990 2014 2032 2068 2107 2167 2300 2390 2297 2078 1974 1933 1925 2014 2153 2271 2337 2328 2306 2398 2760 3157 3345 3139 2905 2961
1757 1766 1771 1811 1870 1898 2199 2309 2288 2294 2254 2242 2264 2289 2299 2312 2316 2529 2842 2897 2709 2396 1972 1546 1146 945 1008 1017 1002 988 988 1010 1047 1077 1103 1138 1209 1290 1409 1496 1573 1637 1692 1738 1751 1791 1817 2248 2269 1821 1824 1824 1821 1825 1844 1866 1877 1896 1930 1957 1970 1994 2043 2087 2162 2180 2123 2028 1979 1989 2029 2050 2098 2168 2281 2436 2628 2695 2825 3108 3384 3273 2895 2756 2776
1876 1632 1517 1569 1615 1881 2093 2188 2533 2723 2712 2621 2580 2541 2526 2478 2624 2773 2929 2983 2944 2808 2397 1872 1364 1119 1154 1134 1118 1097 1069 1065 1098 1147 1197 1236 1256 1284 1299 1328 1380 1485 1573 1654 1728 1779 1816 2158 2490 2279 1843 1794 1789 1782 1793 1806 1834 1862 1901 1910 1920 1928 1954 1947 1969 1978 1972 2076 2141 2193 2246 2336 2430 2559 2756 2942 3085 3211 3522 3635 3365 3028 3188 3274 3161
2333 2589 2788 2597 2188 1908 1838 2566 2804 2898 2885 2838 2776 2714 2644 2504 2794 2887 2986 3058 3014 2958 2826 2550 1984 1339 1276 1325 1292 1236 1203 1176 1171 1192 1244 1302 1348 1361 1370 1351 1339 1379 1461 1551 1632 1699 1756 1798 1806 1827 2094 2039 1944 1908 1899 1896 1916 1928 1938 1952 1930 1946 1927 1919 1882 1830 1790 2071 2170 2257 2376 2495 2684 2911 3124 3355 3588 3567 3267 3225 3621 3770 3790 3732 3636
2230 2372 2688 2793 2908 3096 3188 2977 2988 3025 2926 2852 2793 2733 2566 2673 2910 3002 3089 3127 3064 2990 2930 2843 2607 2086 1497 1433 1430 1402 1360 1338 1309 1298 1296 1329 1405 1450 1447 1437 1423 1407 1428 1491 1565 1644 1708 1768 1814 1819 1827 1893 1953 2048 2049 2024 2020 2012 2002 1977 1965 1960 1920 1880 1848 2752 2142 1953 2129 2351 2510 2629 2753 2940 3129 3186 3182 3430 3669 3721 3812 3814 3669 3507 3450
1860 2050 2470 2683 2700 2831 3142 3311 3170 3173 3154 3097 2970 2892 2895 2997 3087 3129 3185 3187 3106 3030 2958 2892 2773 2576 2180 1460 1523 1529 1522 1509 1480 1468 1445 1419 1398 1508 1520 1516 1511 1497 1473 1495 1562 1639 1718 1779 1844 1885 1914 1948 1980 1989 2002 2001 2019 2043 2055 2038 2044 2058 2074 2065 2078 2142 2262 2351 2441 2557 2612 2600 2622 2673 2835 3197 3496 3647 3726 3873 3962 3998 3817 3678 3749
1576 1796 2204 2482 2595 2748 3152 3482 3347 3169 3274 3264 3246 3211 3185 3233 3264 3269 3275 3229 3141 3051 3005 2936 2837 2722 2565 2270 1746 1614 1617 1602 1630 1617 1594 1564 1560 1518 1541 1577 1582 1577 1544 1567 1615 1678 1728 1792 1876 1930 1976 2005 2037 2062 2078 2106 2084 2068 2048 2073 2114 2194 2262 2369 2512 2688 2813 2879 2931 2935 2953 2958 3001 3022 3062 3285 3387 3470 3518 3535 3486 3436 3571 3634 3686
1017 1369 1780 2176 2565 2998 3409 3680 3462 3323 3300 3335 3316 3333 3329 3330 3320 3319 3287 3247 3186 3099 3027 2975 2881 2806 2735 2620 2334 1838 1711 1721 1721 1752 1750 1754 1732 1690 1661 1624 1693 1694 1684 1693 1744 1781 1812 1848 1894 1968 2044 2081 2090 2101 2122 2151 2132 2099 2085 2236 2391 2578 2724 2818 2862 2956 3055 3154 3200 3168 3198 3230 3212 3196 3192 3240 3312 3402 3439 3463 3448 3345 3504 3659 3708
945 1139 1402 1846 2441 3001 3434 3828 3699 3414 3326 3371 3382 3385 3372 3341 3301 3273 3254 3244 3198 3118 3055 2995 2928 2851 2791 2729 2608 2355 2007 1777 1792 1792 1823 1830 1850 1837 1792 1753 1786 1835 1849 1847 1881 1923 1966 1990 2002 2044 2084 2113 2139 2180 2233 2240 2226 2174 2094 2012 2006 1996 1981 1944 1984 2032 2144 2299 2463 2636 2789 2907 2982 3024 3074 3159 3270 3369 3464 3484 3306 2981 2963 3019 3063
396 539 941 1617 2331 2983 3418 3824 3873 3514 3330 3327 3362 3348 3336 3304 3275 3242 3225 3240 3214 3134 3072 3023 2977 2919 2870 2833 2780 2651 2438 2057 1849 1836 1872 1877 1898 1898 1870 1844 1834 1865 1952 1964 2030 2082 2111 2143 2176 2210 2209 2218 2262 2294 2327 2352 2356 2336 2303 2251 2166 2082 1997 1914 1857 1829 1834 1860 1966 2146 2275 2418 2597 2776 2960 3121 3266 3366 3391 3262 2929 2582 2516 2620 2710
179 510 798 1277 2081 2905 3423 3800 3920 3655 3330 3347 3338 3342 3312 3280 3234 3211 3168 3148 3163 3156 3084 3023 2969 2938 2921 2883 2845 2795 2647 2382 2103 1832 1876 1916 1948 1957 1971 1954 1967 1924 1973 2072 2151 2202 2241 2287 2318 2319 2331 2378 2418 2453 2495 2507 2501 2492 2474 2412 2337 2261 2185 2112 2197 2306 2366 2438 2539 2681 2822 2796 2725 2729 2772 2956 3116 3230 3210 3042 2755 2592 2322 2283 2366
0 383 613 1030 1774 2757 3410 3798 3967 3752 3426 3370 3368 3356 3338 3294 3253 3210 3160 3088 3092 3140 3110 3037 2962 2925 2914 2890 2877 2819 2732 2558 2330 2075 1915 1936 1970 1999 2015 2009 1999 1963 1978 2089 2209 2287 2334 2355 2362 2398 2434 2455 2480 2530 2552 2530 2517 2512 2501 2472 2450 2417 2377 2350 2582 2774 2900 2963 3028 3091 3149 3156 3114 3136 3100 3132 3210 3236 3096 2888 2706 2485 2219 2416 2294
270 423 544 798 1776 2317 3200 3644 3897 3857 3615 3345 3401 3366 3335 3296 3287 3227 3138 3102 3026 3067 3099 3045 2931 2854 2834 2879 2860 2829 2778 2670 2492 2309 2070 1922 2018 2037 2021 2022 1992 1951 1899 1991 2044 2185 2298 2303 2329 2392 2431 2446 2471 2486 2469 2464 2470 2463 2477 2506 2525 2539 2600 2681 2842 3038 3261 3424 3483 3477 3399 3314 3350 3343 3366 3358 3350 3308 3110 2866 2424 2403 2582 2619 2594
290 272 391 865 1274 1800 2874 3418 3784 3895 3730 3480 3438 3434 3380 3330 3277 3184 3146 3153 3110 3107 3107 3097 2936 2816 2803 2836 2817 2825 2800 2729 2594 2398 2243 2057 2092 2086 2067 2029 1988 1947 1889 1880 1882 1960 2033 2144 2170 2224 2258 2281 2233 2232 2249 2297 2347 2413 2490 2544 2602 2666 2737 2888 3079 3246 3440 3531 3585 3594 3570 3552 3556 3543 3593 3628 3556 3391 3104 2564 2459 2638 2794 2864 2869
76 256 228 366 552 1124 2308 3092 3597 3916 3841 3576 3463 3499 3479 3422 3388 3340 3231 3173 3126 3115 3146 3146 3080 2942 2908 2876 2829 2843 2831 2748 2661 2608 2497 2330 2098 2136 2151 2130 2082 2031 1941 1906 1910 1929 1973 2002 2027 2028 2082 2046 1993 1992 2050 2083 2166 2297 2431 2563 2670 2784 2915 3087 3236 3234 3210 3186 3096 3097 3225 3324 3400 3495 3603 3621 3506 3287 2948 2432 2547 2725 2819 2789 2710
5 3 2 2 467 776 1585 2560 3240 3790 4009 3750 3484 3586 3577 3551 3502 3452 3404 3390 3298 3234 3226 3171 3119 3086 3067 3047 3018 3028 2986 2944 2864 2794 2706 2576 2422 2240 2124 2223 2221 2178 2165 2093 2067 2038 1994 1959 1941 1980 2014 2030 2083 2244 2314 2400 2453 2510 2559 2604 2661 2751 2953 3019 3034 3005 3013 2887 2843 2843 2818 2853 2938 2966 3134 3318 3307 3152 2760 2371 2527 2648 2658 2611 2554
5 44 59 357 474 640 997 1871 2756 3415 3916 3931 3640 3631 3694 3650 3598 3570 3497 3424 3367 3382 3325 3290 3252 3231 3168 3110 3092 3087 3066 3058 3006 2973 2894 2746 2616 2474 2351 2339 2377 2384 2323 2294 2255 2191 2117 1991 1869 1844 1840 1940 2119 2255 2373 2437 2532 2617 2712 2693 2740 2644 2784 2849 2962 2998 2991 2967 2937 2854 2731 2627 2531 2646 2736 2988 3058 2991 2616 2350 2453 2479 2359 2252 2208
3 6 311 414 521 682 856 1369 2091 2848 3462 3901 3891 3691 3827 3823 3744 3619 3541 3476 3447 3445 3441 3454 3436 3392 3302 3290 3291 3294 3264 3214 3167 3160 3090 3051 2951 2825 2652 2477 2543 2569 2564 2580 2540 2511 2423 2314 2167 2032 1986 2047 2170 2261 2376 2480 2520 2532 2126 1845 1902 1956 2160 2341 2547 2973 3047 3077 2951 2775 2662 2632 2628 2682 2680 2682 2748 2635 2528 2431 2447 2480 2172 2031 1912
58 264 336 434 573 719 913 1091 1485 1988 2626 3297 3711 3848 3814 3931 3899 3830 3731 3621 3595 3562 3557 3549 3545 3538 3544 3504 3450 3428 3397 3394 3397 3378 3308 3228 3142 3055 2864 2708 2602 2568 2617 2679 2729 2751 2714 2633 2496 2330 2224 2232 2272 2308 2428 2378 2120 1968 1844 1670 1577 1580 1766 1966 2380 2635 2934 3014 3055 2878 2749 2716 2635 2577 2568 2591 2633 2593 2618 2631 2432 2217 2136 2099 1868
145 323 402 476 540 704 832 962 1202 1429 2060 2664 3271 3488 3634 3821 3976 4015 3940 3846 3748 3632 3564 3570 3598 3654 3656 3634 3604 3630 3639 3624 3586 3576 3568 3506 3361 3218 3121 3012 2842 2688 2493 2505 2588 2645 2690 2688 2676 2655 2643 2608 2582 2581 2573 2510 2337 2153 1874 1578 1592 1674 1739 1605 1968 2452 2676 2985 3079 3007 2718 2646 2632 2639 2654 2695 2690 2642 2650 2608 2533 2129 2012 1890 1758
5 198 343 475 591 647 784 888 953 1004 1188 1928 2426 2863 3129 3122 3541 3814 3888 3906 3894 3881 3842 3754 3660 3642 3712 3778 3823 3818 3795 3776 3763 3782 3768 3650 3408 3382 3370 3322 3235 3030 2779 2514 2368 2422 2489 2520 2633 2702 2762 2774 2750 2733 2755 2658 2272 1940 1904 2158 2160 2077 1654 1794 1951 1988 2395 2965 3068 2918 2692 2665 2668 2680 2716 2756 2715 2727 2661 2393 2110 1893 1958 2000 1735
7 6 42 284 398 514 640 801 898 1010 1003 1067 1705 2278 2614 2852 2849 2740 3496 3788 3828 3869 3929 3956 3861 3747 3656 3615 3736 3874 3930 3920 3872 3862 3882 3835 3690 3510 3464 3482 3425 3303 3132 2930 2700 2485 2293 2436 2517 2568 2646 2768 2846 2852 2892 2804 2390 2259 2494 2658 2531 1905 1872 2003 1872 2341 2858 2929 3043 2950 2834 2729 2720 2756 2784 2772 2735 2778 2668 2225 1886 1768 1715 1796 1660
7 4 4 229 331 407 489 614 810 890 882 914 992 1314 1882 2151 2343 2498 2519 2834 3441 3648 3758 3852 3875 3851 3728 3628 3575 3652 3797 3902 3949 3936 3948 3935 3870 3780 3675 3564 3467 3391 3310 3181 2986 2758 2543 2322 2245 2306 2453 2607 2798 2970 3117 3069 2670 2548 2740 2642 2416 2212 2122 2181 2659 2757 2876 2830 2796 2821 2926 3000 2969 2848 2786 2659 2528 2310 2016 1795 1610 1504 1505 1525 1479
6 4 6 2 3 346 426 542 616 738 848 898 899 1028 1258 1472 1754 2062 2302 2472 2597 2820 3267 3486 3655 3773 3785 3660 3574 3536 3646 3754 3868 3902 3935 3974 3979 3927 3810 3709 3634 3530 3430 3326 3096 2826 2645 2526 2454 2423 2479 2698 2905 3025 3090 3075 3058 3011 2807 2542 2542 2616 2331 2495 2717 2748 2640 2619 2669 2774 2821 2836 2765 2338 2350 2192 2201 2302 1984 1604 1464 1458 1434 1392 1308
6 6 6 4 4 4 349 486 591 682 766 822 911 961 963 1148 1364 1607 1825 2015 2261 2562 2714 2944 3148 3268 3266 3173 3095 3200 3486 3591 3671 3699 3792 3904 3965 3969 3948 3835 3713 3662 3571 3407 3152 2892 2755 2705 2706 2689 2683 2748 2826 2915 2948 3148 3254 3154 2969 2677 2595 2513 2540 2599 2480 2423 2344 2338 2307 2328 2408 2513 2408 2342 2329 2087 1788 1642 1578 1548 1439 1338 1282 1145 1100
7 5 5 6 7 7 286 464 635 756 789 826 950 1036 1085 1047 1087 1267 1517 1700 1822 2070 2251 2534 2688 2757 2774 2686 2590 2632 2992 3361 3572 3616 3701 3907 3976 3944 3897 3842 3739 3604 3519 3374 3154 2961 2920 2908 2917 2905 2933 3013 3075 3133 3206 3204 3155 3353 3511 2977 2524 2572 2640 2276 2180 2183 1982 2013 2054 2181 2252 2221 2024 1786 1527 1468 1400 1363 1285 1262 1264 1204 1088 825 700
6 8 6 6 6 6 7 391 591 725 870 905 936 1138 1262 1310 1263 1223 1178 1239 1375 1599 1814 2048 2316 2588 2675 2608 2322 2146 2288 2631 2851 3245 3616 3704 3831 3913 3907 3820 3772 3632 3482 3284 3142 3080 3086 3093 3072 3137 3225 3296 3347 3381 3389 3420 3470 3576 3458 3044 2460 2144 1994 1989 1731 1685 1722 1763 1824 1907 1864 1756 1649 1579 1570 1476 1381 1259 1132 1010 920 890 760 683 631
5 6 5 4 6 5 6 6 240 544 702 805 861 966 1103 1170 1228 1242 1276 1349 1465 1537 1555 1682 1876 2100 2300 2412 2333 2202 2186 2258 2285 2498 2908 3197 3494 3636 3764 3782 3732 3645 3435 3268 3162 3192 3194 3240 3290 3335 3480 3512 3428 3422 3500 3627 3482 3527 3260 2499 2269 1941 1759 1793 1672 1601 1726 1829 1835 1723 1596 1494 1404 1344 1279 1173 1090 1043 957 803 730 562 486 441 259
6 6 4 3 6 4 4 4 6 294 415 493 620 729 803 939 1052 1138 1224 1304 1409 1514 1549 1577 1652 1761 1862 1923 2022 2069 2043 2014 1963 2263 2671 2952 3064 3182 3404 3682 3645 3514 3384 3280 3221 3238 3262 3234 3340 3450 3339 3054 3117 3274 3191 3491 3369 2675 2461 2481 2261 1978 1897 1733 1401 1424 1516 1573 1538 1436 1290 1196 1177 1020 870 787 710 647 550 534 546 408 463 351 512
2 4 5 4 4 5 3 4 5 150 306 387 436 511 612 792 865 960 1055 1195 1305 1407 1531 1570 1594 1636 1713 1798 1884 1976 1926 1925 1988 2191 2322 2541 2744 3037 3295 3546 3503 3352 3233 3243 3260 3276 3258 3251 3310 3336 3126 2933 2975 2903 2717 2732 2473 2433 2346 2357 2193 1963 1897 1632 1374 1198 1198 1215 1276 1230 1088 956 860 721 650 684 756 738 692 751 744 692 713 690 550
3 3 4 4 4 4 4 4 8 4 180 321 446 485 481 505 574 800 912 977 1053 1105 1232 1232 1273 1390 1554 1696 1825 1936 1890 1569 1674 1818 1979 2079 2181 2560 2863 3242 3373 3266 3047 3061 3174 3229 3072 3030 3115 3074 2853 2770 2604 2534 2310 2291 2142 1970 2081 2280 2286 2000 1657 1442 1158 1237 1181 1015 887 748 700 703 737 775 838 759 771 743 698 693 666 631 604 518 535
1 2 2 4 3 4 4 3 2 4 86 239 269 324 410 428 426 444 438 466 702 882 997 1028 928 944 1150 1499 1799 1762 1707 1717 1473 1374 1617 1986 2153 2281 2286 2421 2743 2830 2751 2861 2919 2993 3149 3209 2920 2419 2148 2191 2203 1953 1134 862 894 1225 1607 2070 1922 1832 1690 1380 1032 812 772 730 861 895 887 882 816 694 629 576 573 555 584 635 554 524 491 432 356
2 1 3 3 4 3 4 3 3 3 2 16 119 199 307 318 240 233 35 320 362 2 389 554 680 714 854 1102 1401 1618 1514 1558 1485 1359 1504 1759 1796 1547 1880 2346 2553 2630 2532 2800 2995 3024 2689 2314 1890 1687 1093 846 823 1054 1104 867 786 1108 1520 1566 1486 1289 947 957 873 673 649 709 782 782 702 538 489 417 265 364 38 0 0 0 0 38 98 62 0
4 3 2 4 4 4 4 3 3 1 3 2 106 194 224 315 278 2 2 122 341 474 623 615 572 718 877 780 827 1074 1292 1308 1225 1130 1252 1356 1478 1274 1328 1040 1158 1707 2264 2241 2013 1986 2264 1997 1522 1374 1109 808 698 662 599 658 840 1086 1220 1132 946 917 780 576 620 723 739 655 686 685 755 672 577 469 125 0 0 129 114 67 73 144 149 158 158
3 4 4 3 3 4 3 2 2 2 2 1 1 183 239 310 302 274 56 1 1 2 198 431 476 460 702 693 625 868 1024 911 889 935 876 750 686 861 928 640 542 768 1160 1097 1315 1354 959 704 525 656 724 721 605 412 444 716 884 930 925 880 939 844 680 720 663 710 802 638 621 668 622 490 360 182 0 24 84 64 23 9 6 77 73 40 4
Wind_Speed
10 10 10 9 8 nan nan nan nan nan nan nan nan nan nan nan nan nan 4 0 1 2 3 4 4 5 5 6 7 9 10 10 10 9 9 10 9 9 8 8 9 11 10 10 8 7 7 7 7 8 6 7 9 10 10 9 8 8 8 8 7 7 7 7 6 8 9 6 5 6 6 6 6 3 4 4 4 4 3 2 3 5 5 5 6
12 11 12 10 8 nan nan nan nan nan nan nan nan nan nan nan nan nan nan 1 1 2 4 3 2 3 3 6 8 10 11 10 9 8 9 9 9 8 7 7 9 10 9 10 10 8 7 7 8 8 6 6 7 7 7 7 7 6 7 5 5 5 6 7 5 6 8 8 7 6 6 4 4 4 4 5 5 5 5 5 4 6 5 5 6
14 15 14 12 nan nan nan nan nan nan nan nan nan nan nan nan nan nan nan nan 3 2 3 3 2 2 3 5 8 11 11 11 10 9 9 8 8 8 7 7 7 8 9 10 10 8 8 8 8 7 6 6 7 7 7 6 5 4 5 5 5 5 5 5 6 6 7 8 6 7 5 6 4 5 6 5 5 5 5 5 5 4 5 7 6
17 16 15 13 12 nan nan nan nan nan nan nan nan nan nan nan nan nan nan nan nan 4 3 3 1 1 2 4 7 10 12 11 11 10 9 8 8 8 7 7 7 8 8 9 8 7 8 8 9 6 4 4 6 6 6 6 4 4 4 4 5 4 4 5 4 3 5 5 7 5 6 7 6 6 6 6 7 7 8 6 7 6 5 6 8
19 17 16 14 14 12 nan nan nan nan nan nan nan nan nan nan nan nan nan nan nan nan 5 5 3 3 2 3 6 9 11 11 11 10 10 9 8 8 7 7 7 7 8 8 7 7 7 7 7 5 3 4 5 4 4 5 5 5 4 4 3 4 5 5 4 5 4 3 5 6 7 7 6 7 9 10 10 9 10 10 9 8 7 8 9
19 19 18 16 15 13 11 10 nan nan nan nan nan nan nan nan nan nan nan nan nan nan nan 6 5 4 4 4 5 8 11 11 11 10 9 8 8 8 7 7 7 6 7 7 7 6 6 6 5 3 2 3 4 3 2 3 4 5 5 5 5 6 6 6 6 6 5 3 4 7 8 7 9 9 10 12 11 10 10 11 12 11 13 11 10
20 19 18 17 16 14 12 11 10 10 nan nan nan nan nan nan nan nan nan 8 8 7 nan 6 7 6 5 6 6 8 10 11 11 10 9 8 7 7 7 6 7 6 6 6 6 6 5 5 4 2 3 3 2 2 1 2 3 3 4 5 7 8 7 6 6 7 6 6 7 7 6 8 10 7 11 14 14 11 9 12 13 13 14 15 11
20 19 19 17 16 14 14 13 14 13 14 14 nan nan nan nan nan nan nan nan 8 7 6 6 7 7 6 6 7 8 10 11 12 11 9 7 6 6 6 6 6 6 5 5 4 5 5 4 3 2 2 2 2 1 3 1 3 3 4 7 8 9 8 8 8 7 7 7 7 7 9 10 12 11 13 15 15 15 14 15 12 12 13 15 15
19 18 19 17 15 16 17 18 17 16 16 16 14 13 nan nan nan nan nan nan nan 8 8 8 8 7 8 7 8 9 9 10 12 12 10 8 7 5 4 5 5 5 4 4 3 3 3 3 3 2 1 4 5 4 4 5 5 4 4 7 7 8 8 9 8 9 8 8 8 9 9 10 10 11 12 13 12 11 15 18 15 13 15 17 14
18 18 17 16 18 19 19 19 18 18 17 16 15 14 14 13 nan nan nan nan nan nan nan 10 8 7 7 8 8 9 10 12 11 7 8 9 8 6 5 4 4 4 4 3 2 1 1 1 1 4 5 5 5 4 4 5 6 7 6 9 8 9 8 8 8 10 10 9 10 10 10 10 10 12 13 14 14 16 17 17 15 14 17 17 19
17 17 15 17 19 20 20 19 19 18 17 17 17 16 15 16 15 14 nan nan nan nan nan nan 9 8 8 8 8 9 11 12 7 7 7 5 9 8 6 5 4 3 3 3 2 1 0 1 2 1 1 2 2 4 4 5 5 5 6 7 10 11 10 9 9 11 11 10 12 14 12 12 12 15 14 13 16 16 17 18 16 18 19 19 17
16 15 16 19 20 19 19 18 18 17 17 17 17 17 18 17 16 15 15 14 nan nan nan nan 12 11 10 10 9 10 11 10 7 7 7 7 8 11 11 9 8 6 4 2 2 1 1 2 4 5 6 5 6 6 4 3 4 4 5 6 6 7 9 11 11 12 14 11 10 11 14 14 14 18 16 18 15 19 19 20 20 20 20 20 21
17 16 17 19 18 18 18 17 16 17 16 17 18 19 18 17 16 15 14 15 18 nan nan 14 14 14 12 11 10 10 12 10 8 7 8 8 8 10 15 12 10 8 6 4 3 2 2 3 5 7 8 6 7 8 9 7 5 5 4 4 3 5 5 5 8 11 14 14 12 10 13 15 14 15 19 18 22 20 22 22 23 24 23 21 21
22 21 20 18 16 16 16 16 15 16 17 18 19 19 18 16 16 16 17 19 18 16 16 15 16 16 15 14 13 13 13 12 9 8 8 8 9 12 16 15 14 11 9 7 6 4 4 5 6 7 9 11 11 11 11 10 9 9 8 8 8 5 5 7 8 8 11 13 13 11 12 21 12 15 16 19 19 16 17 17 22 22 22 21 23
34 30 24 20 18 17 16 15 15 17 18 18 19 18 17 17 17 18 19 18 17 17 17 17 17 18 17 17 17 15 15 12 12 10 10 9 9 14 17 18 18 15 13 11 9 8 8 8 8 7 9 12 13 14 13 12 12 10 9 9 9 9 9 9 11 12 13 14 13 12 11 16 15 14 17 19 17 16 17 17 19 21 20 20 21
30 32 30 27 25 22 20 19 19 20 19 19 18 17 17 18 18 20 20 20 20 21 20 20 18 18 19 19 18 16 16 14 14 13 12 11 12 18 19 19 19 18 16 14 13 12 12 11 11 10 10 11 11 12 13 14 14 11 10 10 11 11 10 9 9 11 13 14 14 13 14 14 14 16 19 20 19 19 19 20 23 22 18 17 17
34 33 31 31 32 32 28 24 22 21 20 19 18 17 18 18 20 22 21 21 21 20 20 20 21 20 20 20 18 17 17 18 18 16 15 14 19 19 18 19 20 19 18 18 17 16 15 15 15 14 12 12 11 14 14 15 15 12 11 11 11 12 10 11 11 10 9 10 10 11 11 11 11 12 15 18 20 23 23 21 19 22 20 15 16
37 35 33 33 31 28 29 29 24 22 22 19 17 18 18 19 19 21 20 20 20 20 22 23 22 22 20 19 18 18 18 20 21 19 18 19 20 19 19 19 18 19 19 20 21 20 18 14 16 16 15 14 11 14 16 19 17 15 14 13 12 12 11 13 16 16 14 11 10 10 10 11 11 11 13 15 20 26 26 21 22 26 20 20 17
40 36 34 34 33 32 27 22 22 22 21 19 19 17 17 17 18 19 19 20 19 21 22 23 22 23 21 20 18 17 19 21 22 21 20 22 22 21 21 21 18 18 20 20 21 22 21 19 14 16 17 16 13 14 17 21 18 18 18 17 13 13 12 17 19 17 17 17 16 18 16 16 16 17 17 16 21 26 24 21 22 24 19 20 22
42 39 36 33 31 30 29 24 20 19 18 18 18 17 18 18 18 18 18 19 20 20 20 21 20 21 22 22 21 20 19 22 24 22 23 23 24 23 23 22 18 18 20 21 21 22 22 23 21 17 16 16 15 15 17 21 19 20 22 20 17 14 18 23 20 19 17 17 16 18 17 18 20 20 20 19 19 23 23 22 23 23 22 23 26
49 43 37 35 32 31 30 25 20 17 17 17 17 18 18 17 17 17 17 18 19 19 17 18 18 19 21 22 22 21 22 21 23 25 24 25 24 24 23 20 19 20 21 22 22 22 23 24 25 23 20 19 18 17 16 19 19 21 22 20 19 18 23 26 21 19 20 19 18 18 18 19 19 19 19 20 20 22 24 23 23 25 26 26 27
47 47 48 46 43 40 37 33 25 20 18 18 19 18 17 17 18 17 19 19 17 16 16 17 17 17 19 20 20 20 21 20 23 26 25 26 25 24 22 20 21 23 22 22 22 23 23 26 27 25 24 23 22 19 16 18 20 22 21 19 17 19 23 25 24 24 22 21 20 19 18 19 19 20 20 21 22 23 24 24 25 25 26 26 25
51 51 51 51 48 45 41 35 28 25 22 19 19 18 19 19 19 20 20 19 18 16 15 16 16 16 17 18 19 19 21 23 20 25 27 26 25 23 19 19 21 22 22 21 21 22 25 27 28 26 27 27 25 21 19 18 23 22 18 18 19 19 23 26 25 23 22 22 20 18 18 19 18 18 20 21 22 23 23 23 23 24 23 22 22
54 52 52 51 48 44 43 38 31 25 22 21 20 20 22 22 22 23 22 22 21 18 17 17 16 15 14 15 17 18 21 22 23 21 27 28 25 23 19 16 20 23 22 21 23 24 26 27 29 27 28 28 28 25 22 23 24 19 19 19 21 24 27 26 25 24 23 22 20 17 16 17 17 17 18 19 19 20 20 20 20 21 22 22 23
54 51 50 49 46 44 43 39 33 28 24 23 22 23 23 25 26 26 27 26 24 21 19 18 16 14 15 15 15 18 20 20 21 22 22 28 27 23 20 17 16 19 21 22 23 25 24 23 25 26 27 29 30 28 27 25 21 20 22 23 25 29 27 26 24 25 23 21 20 16 14 15 16 16 16 18 19 18 18 17 19 21 22 23 25
52 51 52 51 47 45 44 41 35 30 27 26 24 24 24 26 27 29 30 28 26 24 22 20 17 16 15 15 17 19 20 20 19 22 25 26 27 24 23 20 17 17 17 19 19 18 20 23 23 24 29 33 36 35 32 28 23 21 22 26 30 27 27 25 25 24 21 20 18 15 14 16 16 16 18 19 19 17 19 20 21 21 26 30 32
54 54 53 49 44 44 43 43 39 34 29 28 28 27 27 28 27 28 29 29 28 27 26 24 21 18 15 16 19 22 22 20 20 21 26 27 27 28 27 23 19 20 21 22 24 26 26 27 30 31 32 33 33 32 30 29 29 29 30 30 28 27 26 25 24 22 21 20 17 16 16 17 21 22 19 19 18 18 23 24 26 26 30 32 34
nan 54 52 47 43 45 47 43 40 36 32 30 30 30 30 30 29 27 26 26 28 29 30 28 25 21 19 19 22 23 22 21 20 21 24 28 30 33 31 29 28 28 25 23 25 28 30 32 35 38 37 38 36 35 32 31 30 30 30 31 28 27 25 22 22 23 21 20 18 19 20 22 21 19 20 20 20 22 27 28 29 29 32 35 36
47 50 50 46 44 47 50 49 44 39 36 34 32 32 32 32 31 27 23 25 26 27 28 28 26 23 22 22 22 21 20 20 19 26 30 32 32 32 32 29 30 29 25 25 30 33 34 35 35 35 35 32 33 32 31 31 30 30 30 31 30 28 27 27 23 22 21 21 19 18 18 21 20 21 21 22 23 25 29 29 30 32 34 36 35
48 50 49 47 46 48 52 54 50 44 40 39 37 36 34 31 31 30 28 23 20 20 24 25 24 25 24 22 22 20 18 18 29 38 32 32 32 32 30 31 31 30 28 31 35 36 34 31 30 30 29 29 28 29 29 30 30 31 31 31 29 28 26 25 24 23 23 21 20 21 20 21 21 22 23 24 25 26 29 32 33 37 39 37 37
nan 55 53 50 48 46 46 49 51 48 45 42 41 39 39 38 35 31 29 28 24 20 19 16 20 23 24 23 21 14 14 20 31 33 33 32 33 32 31 31 31 28 36 49 42 36 33 32 30 28 26 26 27 28 30 31 31 31 32 32 30 27 27 26 24 24 24 22 22 21 22 23 22 24 26 28 29 30 32 33 36 39 40 42 42
nan nan nan nan 50 49 47 48 50 51 48 45 43 43 41 39 37 36 35 35 33 26 20 19 20 21 19 19 22 21 18 20 26 29 32 35 34 33 33 32 31 32 39 43 39 35 33 32 30 27 26 28 28 29 31 32 32 33 34 34 31 30 28 25 24 26 26 25 23 22 23 24 25 27 30 32 33 34 35 37 38 40 41 43 44
nan nan nan 54 53 52 52 51 52 54 54 51 47 47 45 42 40 38 40 42 40 37 30 24 21 19 18 18 17 19 22 23 22 25 29 33 35 35 35 35 35 42 50 42 34 32 32 31 28 27 30 31 31 32 33 35 36 38 38 36 34 32 28 24 29 29 26 23 23 24 25 26 28 31 34 36 37 36 37 39 41 43 44 45 45
nan nan 56 58 56 54 55 56 55 56 55 58 58 54 48 45 42 41 40 39 41 42 41 33 27 24 24 23 22 20 22 25 25 24 27 29 33 36 40 43 48 46 41 36 34 29 30 29 28 31 36 37 38 39 40 44 47 46 43 39 36 36 34 34 30 24 25 24 24 25 28 29 33 35 36 37 38 40 41 41 44 46 46 45 46
nan 57 64 63 59 57 56 58 58 56 58 57 57 56 51 47 44 42 42 42 41 38 36 35 37 36 31 30 27 26 26 26 27 27 27 29 32 42 54 52 48 43 37 33 33 31 30 30 32 37 39 36 35 35 34 37 39 39 38 39 39 37 35 32 25 22 23 25 26 28 30 33 36 37 40 41 42 41 43 47 46 46 47 46 46
56 56 57 60 59 57 58 60 60 59 56 55 54 53 54 56 56 52 51 49 48 45 43 46 49 46 38 35 34 33 31 30 31 31 29 32 42 53 46 41 41 38 36 34 32 31 31 33 36 34 35 34 34 35 35 36 38 39 39 39 39 40 38 33 28 23 20 24 28 31 35 37 40 41 42 43 44 47 51 51 49 49 48 46 46
nan 58 57 57 57 55 57 59 60 61 59 57 56 57 56 54 52 53 56 56 55 54 53 53 51 49 47 42 37 35 35 35 36 38 38 39 42 44 39 39 37 37 36 35 34 33 33 33 34 34 35 34 35 35 35 37 39 39 39 37 36 39 38 30 20 16 17 24 30 34 37 40 43 42 44 46 47 50 52 52 50 50 46 43 45
nan nan nan 57 55 55 56 58 61 62 60 58 57 57 57 57 57 56 57 56 54 51 48 48 47 43 41 37 43 42 47 50 55 55 55 55 50 40 38 38 37 37 37 37 37 36 34 34 36 35 34 36 36 36 36 38 40 40 39 37 36 33 31 27 18 17 22 27 32 37 43 45 45 44 46 48 49 50 50 50 52 51 47 44 45
nan nan nan 60 57 55 54 57 60 62 62 61 59 57 55 55 55 53 52 51 50 49 48 49 48 44 40 46 54 54 57 52 49 44 46 47 48 45 44 42 40 39 39 39 40 39 36 35 37 38 38 37 37 38 38 39 41 39 37 36 33 31 29 28 28 29 30 33 37 42 45 47 48 49 49 49 49 51 53 53 51 50 49 47 45
nan nan nan nan nan 57 56 56 56 57 59 60 61 59 56 54 53 51 50 49 49 50 49 49 48 46 49 54 53 55 50 48 47 45 47 49 48 48 50 49 46 43 42 43 43 42 39 38 42 42 41 39 39 40 41 41 42 41 40 36 33 32 33 35 35 34 35 38 42 44 47 48 50 51 50 49 50 52 53 52 51 50 49 48 46
nan nan nan nan nan nan 58 57 54 54 54 55 56 57 57 54 51 50 50 50 50 50 50 50 48 49 50 46 49 54 54 52 50 48 49 52 53 53 54 54 52 47 45 45 46 45 42 43 45 46 46 43 41 40 41 43 45 44 42 42 40 35 35 36 37 38 40 43 45 46 48 49 51 52 52 51 52 54 53 53 51 49 47 45 44
nan nan nan nan nan nan 58 58 55 53 52 51 52 54 54 53 51 47 46 47 49 48 48 48 47 49 49 46 50 53 56 57 56 55 57 60 60 58 58 60 60 56 53 50 50 50 51 52 52 52 52 50 49 48 50 50 47 47 49 49 46 42 41 41 42 44 45 46 48 48 49 50 51 52 54 54 55 55 54 52 49 46 43 42 41
nan nan nan nan nan nan nan 56 53 51 50 51 51 52 52 52 51 48 44 43 43 44 46 48 50 52 50 48 51 56 57 56 64 67 67 67 68 69 70 71 70 68 65 62 60 59 58 57 58 57 56 54 52 51 50 49 50 51 51 50 48 46 44 42 44 46 47 48 49 50 51 52 53 54 54 55 55 53 51 49 47 44 43 41 41
nan nan nan nan nan nan nan nan 56 54 52 52 53 53 54 53 54 53 50 45 43 44 45 46 47 48 50 57 60 61 58 60 64 67 71 74 75 73 72 73 74 75 73 70 66 65 65 65 65 63 61 57 55 54 54 52 52 52 53 53 53 50 46 44 45 45 46 50 52 52 53 53 54 54 53 52 51 50 48 47 46 45 44 44 44
nan nan nan nan nan nan nan nan nan 59 58 55 56 57 57 56 57 57 56 55 53 51 49 50 51 53 58 62 62 63 65 66 67 69 73 77 78 74 72 73 76 79 81 78 72 70 70 69 68 68 66 61 58 57 53 54 57 57 55 58 59 55 49 47 46 44 46 51 53 54 52 52 51 50 49 47 47 48 47 46 47 47 48 46 47
nan nan nan nan nan nan nan nan nan 64 61 59 59 59 59 59 59 59 59 59 58 56 56 55 55 57 59 61 64 65 67 68 66 66 70 74 75 74 73 74 77 80 84 84 79 77 75 73 70 69 69 66 62 58 57 58 60 62 62 60 59 54 49 47 45 47 50 52 53 53 51 49 47 46 46 46 46 47 47 47 47 48 49 49 49
nan nan nan nan nan nan nan nan nan nan 64 61 61 60 60 61 61 62 60 60 59 60 60 57 57 58 59 60 64 67 66 63 62 63 67 70 72 74 76 78 79 81 84 85 83 80 79 76 71 70 70 67 64 61 59 56 54 53 54 54 53 52 50 48 48 49 51 51 51 51 49 47 46 46 46 47 47 48 49 49 49 50 50 50 50
nan nan nan nan nan nan nan nan nan nan nan 62 61 62 62 61 62 65 64 59 58 59 61 61 60 59 59 61 65 68 67 66 65 66 65 68 71 75 77 79 80 81 83 86 87 84 80 74 72 74 74 68 61 61 62 60 54 49 49 49 49 50 52 53 52 51 51 51 50 49 48 47 47 47 47 47 48 48 51 51 51 51 52 52 52
nan nan nan nan nan nan nan nan nan nan nan nan 62 65 67 65 61 62 nan 61 58 nan 61 63 61 60 61 62 65 68 67 66 67 68 68 68 71 74 75 76 78 81 84 87 89 87 81 74 71 72 75 71 63 60 61 63 62 57 54 51 53 60 62 60 55 52 53 52 50 49 49 49 50 50 50 50 nan nan nan nan nan nan nan nan nan
nan nan nan nan nan nan nan nan nan nan nan nan 67 66 67 68 65 nan nan 58 55 56 58 62 63 63 64 64 66 66 66 64 64 67 68 68 69 70 70 70 73 78 83 85 85 81 78 75 74 73 74 72 66 60 57 58 60 59 58 58 63 66 66 64 60 59 56 53 52 50 49 50 51 52 53 nan nan 56 56 nan nan 58 58 58 59
nan nan nan nan nan nan nan nan nan nan nan nan nan 70 69 67 65 62 nan nan nan nan 56 60 61 60 60 60 63 64 66 66 63 62 63 62 62 65 67 65 66 72 79 82 80 77 75 74 73 74 74 69 62 58 56 55 54 57 64 69 69 68 67 62 60 61 63 59 57 55 54 54 55 55 nan nan nan nan nan nan nan nan nan nan nan
Wind_Direction
220 214 215 212 216 nan nan nan nan nan nan nan nan nan nan nan nan nan 236 128 78 66 61 52 37 49 81 115 126 131 130 124 124 120 108 102 100 98 103 100 97 102 109 113 121 120 116 116 120 129 157 154 137 138 144 149 159 160 177 182 183 191 205 205 188 152 166 174 166 160 169 178 169 193 169 165 175 188 214 287 314 317 325 337 347
211 217 217 217 224 nan nan nan nan nan nan nan nan nan nan nan nan nan nan 183 213 70 68 72 62 50 88 119 135 138 138 132 131 128 114 109 107 107 98 96 97 100 105 102 104 109 115 116 119 124 138 144 148 146 141 161 165 165 172 178 175 176 195 212 191 195 161 188 179 181 177 215 192 216 210 190 186 222 211 211 241 285 301 310 319
213 217 218 215 nan nan nan nan nan nan nan nan nan nan nan nan nan nan nan nan 200 147 90 80 69 58 92 125 144 149 146 144 144 137 123 112 103 106 102 96 94 94 94 93 96 105 108 107 110 121 137 144 148 148 159 159 172 170 157 185 181 183 208 218 224 197 174 167 200 191 206 215 237 193 213 224 229 243 240 234 245 253 280 299 310
216 216 217 219 221 nan nan nan nan nan nan nan nan nan nan nan nan nan nan nan nan 180 146 116 140 114 95 132 152 156 158 156 152 143 129 120 113 108 110 106 101 97 93 91 91 91 91 98 98 105 124 132 142 152 159 169 172 172 173 181 195 189 217 235 242 232 219 190 202 223 211 210 208 229 232 236 235 236 258 260 270 273 273 285 302
221 217 216 221 224 224 nan nan nan nan nan nan nan nan nan nan nan nan nan nan nan nan 165 164 163 165 132 141 158 162 161 162 156 147 141 136 123 119 119 117 111 103 99 98 94 87 87 82 87 94 100 108 132 139 157 172 186 199 189 193 207 207 223 244 244 252 240 201 200 230 236 234 244 229 239 232 234 246 259 266 275 277 275 292 301
224 223 220 220 222 226 227 230 nan nan nan nan nan nan nan nan nan nan nan nan nan nan nan 171 169 160 157 158 168 168 169 171 164 153 142 141 139 135 134 130 121 116 112 112 106 99 85 80 82 78 79 72 92 123 170 165 207 218 214 214 220 228 228 230 241 246 255 238 244 212 233 238 232 243 250 257 243 234 240 262 267 277 283 275 283
225 225 224 222 221 223 226 227 229 228 nan nan nan nan nan nan nan nan nan 220 223 216 nan 182 177 177 165 171 176 179 177 175 173 165 155 151 146 142 140 139 136 134 128 115 116 115 106 98 90 64 54 53 63 76 130 205 229 220 234 233 239 242 234 234 244 245 250 242 238 261 244 252 270 241 254 261 268 272 256 247 263 279 277 281 282
226 227 227 224 221 222 224 224 224 225 223 222 nan nan nan nan nan nan nan nan 225 225 217 204 192 189 174 176 179 187 185 181 179 176 172 168 166 156 146 142 136 137 134 126 122 118 111 114 113 101 58 51 16 9 302 304 260 236 237 243 244 249 242 239 240 245 245 248 251 238 257 249 253 264 257 254 254 261 270 273 261 263 268 281 296
227 227 226 224 222 222 223 222 222 224 225 226 226 226 nan nan nan nan nan nan nan 230 227 222 211 199 188 186 187 189 189 185 188 189 188 184 187 170 151 133 126 124 126 125 131 126 131 126 128 125 93 60 40 19 338 318 296 291 265 267 260 261 255 251 252 251 249 251 238 253 246 239 255 258 249 260 264 263 270 269 269 273 283 285 293
226 225 223 221 221 223 224 223 225 227 228 228 229 229 229 230 nan nan nan nan nan nan nan 235 226 214 204 199 196 192 188 193 190 187 199 203 205 198 184 159 147 139 127 126 129 133 115 142 138 59 53 57 60 49 29 7 347 312 299 289 288 281 278 272 265 264 261 252 256 255 243 247 255 269 270 275 276 269 266 275 272 266 268 284 295
220 220 217 217 221 223 224 224 227 230 232 231 230 230 231 230 232 236 nan nan nan nan nan nan 240 228 220 214 208 195 192 196 196 205 205 209 215 213 209 196 195 177 154 136 118 91 236 253 230 156 74 1 352 32 29 21 7 354 344 326 307 300 291 290 283 277 272 266 259 262 263 252 258 269 270 267 276 276 277 281 283 274 274 273 280
213 212 210 215 219 223 224 226 228 231 233 233 234 232 231 232 231 234 239 243 nan nan nan nan 248 242 232 224 216 205 198 198 211 216 218 218 220 217 217 213 215 211 201 182 167 183 253 263 257 257 258 267 272 276 305 355 12 2 351 350 347 336 315 298 290 278 278 277 267 271 268 266 260 268 265 266 267 274 280 282 285 284 280 281 287
207 206 209 215 218 221 223 225 226 228 230 231 231 231 232 232 232 234 238 241 243 nan nan 247 248 249 245 237 225 216 208 212 222 227 227 229 229 224 218 221 220 222 227 229 223 232 257 266 254 258 260 295 287 280 276 273 301 348 354 348 339 331 326 321 302 294 284 285 284 273 283 274 269 274 278 274 271 273 275 279 282 286 288 286 288
202 201 204 207 211 216 220 223 224 225 227 229 231 233 233 232 231 231 232 237 243 244 244 244 243 246 248 244 233 224 220 222 239 238 234 237 235 232 219 224 222 222 230 239 246 258 274 279 275 257 260 264 269 276 275 276 269 264 266 273 279 285 314 333 336 332 305 292 288 287 284 285 287 279 284 280 277 276 277 280 284 284 287 291 288
203 198 196 194 196 200 205 210 214 218 224 229 232 234 234 230 230 230 232 237 241 243 243 240 238 239 242 243 238 232 227 238 249 251 246 246 242 238 222 223 224 224 228 234 245 261 269 277 281 276 263 263 268 276 279 279 274 267 258 257 264 268 274 280 287 291 295 296 297 297 286 284 287 284 282 285 289 290 291 293 293 296 296 290 285
215 209 200 191 188 191 193 196 201 207 213 220 224 227 229 230 230 230 230 230 231 234 236 237 237 237 238 241 241 238 234 251 258 259 259 252 253 234 226 225 226 227 230 234 240 249 260 268 272 276 272 267 273 290 288 278 273 270 262 254 253 258 263 279 294 292 293 293 292 289 283 283 284 281 281 286 288 287 286 284 284 290 297 298 298
212 211 208 206 198 189 189 192 195 199 205 208 210 214 219 222 225 228 228 229 230 232 234 236 234 235 236 238 241 238 238 253 266 269 267 269 253 236 233 228 227 226 228 235 239 245 254 260 266 269 272 270 276 285 289 285 270 270 262 252 253 253 251 256 274 293 302 304 309 309 308 305 295 288 289 293 292 286 285 285 295 301 307 307 302
213 214 212 210 210 207 189 186 190 195 197 195 196 201 209 214 221 228 229 229 229 230 232 233 234 235 238 238 239 236 235 248 267 270 275 276 269 253 244 239 233 230 228 232 237 242 251 270 270 267 270 270 278 284 289 282 273 272 265 257 251 251 247 255 258 266 285 299 304 304 294 288 293 297 297 302 305 297 298 305 300 299 310 309 309
211 213 214 213 209 204 206 195 190 190 190 188 191 194 202 209 216 224 227 227 228 231 234 236 237 237 239 240 244 242 233 241 262 269 276 278 272 254 252 247 242 237 237 234 237 241 246 254 270 270 268 271 278 279 286 284 274 272 271 267 264 259 256 256 262 263 266 268 271 278 281 294 299 300 303 319 316 312 308 308 298 299 304 304 305
210 209 207 210 214 212 202 194 190 189 187 187 191 194 201 208 212 220 225 227 228 232 234 237 240 240 241 243 242 245 241 239 251 269 273 278 282 264 254 253 248 245 243 242 238 240 244 247 254 264 270 272 273 276 282 291 280 271 269 269 268 265 260 263 269 273 270 274 271 276 284 286 290 296 299 302 304 303 305 301 298 298 301 303 304
206 208 211 209 208 211 209 199 191 190 192 194 198 202 206 209 213 220 226 230 232 234 237 237 238 238 241 243 244 247 247 247 250 269 271 276 281 276 257 258 255 250 246 244 242 241 242 247 248 257 267 267 267 270 274 285 287 275 274 272 271 269 264 269 272 282 275 273 271 272 274 277 282 287 292 293 293 292 293 297 298 300 304 306 309
211 208 206 204 200 201 204 203 199 197 200 207 210 211 211 215 218 223 228 234 239 240 240 240 238 238 239 243 245 248 252 263 253 265 274 275 278 286 263 258 259 254 248 242 242 241 243 246 248 254 265 266 268 270 275 277 285 274 275 283 282 276 270 272 271 272 275 274 274 274 274 277 282 287 290 291 292 294 297 300 304 307 311 313 316
212 213 212 206 200 196 198 198 202 205 209 216 220 220 222 223 225 228 233 237 240 242 243 244 242 241 241 242 245 249 251 254 268 263 274 279 280 281 283 264 267 259 251 246 244 242 244 245 248 255 261 266 267 270 271 277 272 273 285 284 282 280 272 268 271 273 273 275 276 279 280 284 288 292 293 294 296 298 302 305 307 310 314 317 320
214 215 214 207 199 195 196 195 197 206 214 222 226 228 230 231 232 234 237 240 239 239 239 244 247 247 248 244 244 246 249 250 259 273 271 283 281 284 282 276 268 258 253 245 243 243 243 245 248 256 263 268 270 269 271 274 272 282 281 277 271 266 265 268 271 276 276 277 281 283 286 289 292 293 295 298 300 299 300 303 307 310 313 314 317
214 216 216 209 202 199 197 194 195 203 214 224 229 231 234 236 234 235 238 240 240 239 238 243 247 251 251 252 248 248 250 251 251 263 279 280 287 288 287 284 271 267 254 244 242 242 245 251 253 256 261 266 269 268 263 265 271 267 269 272 270 264 267 269 271 272 276 280 285 288 289 292 296 297 295 290 288 288 293 296 301 303 304 305 305
215 215 214 211 205 200 197 194 194 200 212 221 228 233 239 241 239 239 241 242 243 242 241 242 242 245 249 253 254 253 253 252 253 256 263 274 279 291 295 289 283 274 265 252 256 252 251 253 257 255 254 257 261 261 263 265 273 276 270 265 262 264 265 267 268 271 273 277 284 289 288 285 288 289 283 284 293 302 300 301 304 302 300 302 303
215 212 210 209 207 203 200 199 198 201 210 219 226 231 237 240 242 241 243 245 245 244 243 242 240 241 244 250 253 254 255 255 256 257 261 265 267 268 269 266 268 261 249 239 237 240 239 241 244 248 250 258 262 263 264 263 262 262 263 265 267 266 267 268 271 272 273 275 277 280 283 283 275 276 288 293 297 298 298 300 302 304 304 304 307
nan 209 207 209 211 208 206 200 198 204 209 217 226 232 237 243 246 246 248 249 248 246 246 245 244 244 243 246 250 253 257 259 261 265 266 264 262 262 264 265 264 265 261 254 250 245 241 241 243 244 247 248 254 256 260 262 265 265 265 266 266 266 267 270 264 261 263 268 269 271 271 278 283 287 288 294 294 291 292 298 301 302 304 304 305
206 207 206 208 212 213 212 209 209 210 211 215 221 228 236 242 245 246 250 252 253 254 252 250 250 248 248 250 254 254 258 264 266 263 259 265 267 266 267 269 267 265 269 270 258 249 245 245 246 247 249 253 256 259 262 263 263 264 263 263 263 264 264 265 266 267 268 267 269 274 275 276 281 286 288 287 287 289 291 297 300 303 302 308 315
208 208 207 207 210 212 213 213 212 213 213 214 218 221 224 232 240 246 247 254 263 266 261 254 254 251 249 249 253 257 259 258 259 269 275 278 282 287 287 287 286 280 276 276 265 258 257 255 253 253 253 255 257 259 262 263 263 261 260 261 262 262 262 261 260 261 263 266 267 269 272 276 280 283 284 285 285 290 296 300 300 301 302 308 311
nan 213 210 208 207 210 214 213 211 211 213 214 217 221 224 222 221 225 230 243 257 263 263 260 256 258 255 248 249 257 251 250 265 274 278 279 281 284 285 286 287 287 275 262 262 267 265 264 261 258 258 257 257 257 258 260 260 259 259 261 262 262 260 257 257 259 261 263 265 268 270 274 277 280 284 286 290 293 295 298 300 302 306 306 308
nan nan nan nan 209 212 215 214 210 209 213 216 217 221 222 224 224 226 230 230 230 239 247 247 247 251 259 258 248 239 247 256 265 271 276 278 280 280 281 280 281 280 274 275 267 268 269 268 265 263 261 258 256 255 255 256 256 257 257 259 258 257 258 255 257 259 260 262 265 268 270 272 276 280 283 286 291 294 296 297 300 301 302 303 306
nan nan nan 212 213 213 214 216 214 214 214 215 219 221 222 223 226 226 226 232 233 231 233 239 246 249 257 259 263 261 263 268 273 273 277 281 281 281 279 278 274 269 265 264 267 268 269 270 267 263 260 257 253 252 251 251 250 250 248 246 245 243 245 248 252 254 258 264 267 267 269 273 276 279 283 288 292 294 295 296 297 297 298 301 303
nan nan 216 217 218 220 219 217 217 216 220 222 219 219 221 224 226 228 230 231 227 226 227 232 236 233 229 235 245 250 255 266 274 279 281 282 283 282 278 266 263 272 275 272 272 272 273 272 266 259 256 255 254 255 256 256 256 253 250 246 240 232 228 228 239 250 256 260 265 266 270 275 279 283 286 289 290 289 290 292 293 294 295 298 301
nan 219 214 217 223 224 224 221 218 220 221 223 227 225 222 223 226 228 232 232 234 235 235 233 237 242 236 233 233 236 241 247 260 271 277 279 281 276 268 262 262 257 257 262 269 271 272 272 267 264 264 267 269 270 270 274 276 273 268 266 264 256 243 237 236 240 251 260 266 270 275 279 282 284 286 287 287 289 288 283 283 289 292 293 295
223 225 224 222 224 226 226 225 222 221 222 224 226 227 225 222 221 222 225 227 230 231 230 231 235 239 239 234 233 239 244 246 245 250 263 274 274 274 271 270 269 270 272 273 274 275 273 272 271 270 269 266 264 263 264 267 269 266 261 260 261 263 260 245 228 229 246 260 268 274 276 278 280 282 283 285 289 289 288 289 291 290 288 289 292
nan 225 226 226 226 227 227 226 225 223 222 223 225 226 226 227 228 227 227 230 232 233 234 236 238 237 237 238 242 243 250 253 255 256 255 257 270 274 272 275 276 275 273 273 274 274 274 273 272 269 266 265 265 266 265 265 265 264 261 259 259 265 268 265 250 240 256 264 269 275 278 279 280 284 287 289 289 289 289 291 295 296 293 291 292
nan nan nan 224 225 226 227 227 226 224 225 226 228 229 229 229 229 233 236 237 237 239 241 242 244 244 245 243 252 250 249 248 251 249 252 258 262 264 267 269 273 276 277 273 273 274 276 274 272 270 267 265 265 263 261 260 260 258 258 259 260 261 271 276 282 282 272 270 272 274 275 277 281 284 284 285 286 287 288 290 295 298 298 298 297
nan nan nan 218 222 223 224 225 226 227 227 226 227 230 233 234 236 240 242 243 242 240 239 239 240 242 241 243 247 248 250 249 252 253 257 260 265 268 269 268 268 270 273 274 271 271 271 271 269 266 263 263 263 260 259 258 258 257 258 261 261 258 264 271 277 275 274 274 274 276 278 280 282 284 285 285 287 290 292 293 295 294 295 295 295
nan nan nan nan nan 220 222 223 224 226 227 228 228 230 233 237 239 241 242 242 241 241 241 243 243 242 242 245 249 252 255 255 253 253 255 258 262 263 265 267 267 267 268 270 270 269 269 268 267 267 266 264 262 259 258 259 258 256 256 259 261 261 263 267 270 272 273 273 275 277 279 283 284 283 283 285 287 288 290 292 293 292 292 292 292
nan nan nan nan nan nan 221 222 223 224 226 227 230 232 233 236 240 242 243 243 243 242 242 243 244 246 249 252 259 261 256 254 253 251 251 254 255 256 259 264 267 265 263 267 269 269 268 267 265 265 264 261 257 257 258 259 259 259 258 257 258 260 261 262 265 268 270 273 275 277 279 280 282 284 285 286 288 289 289 290 290 290 290 290 290
nan nan nan nan nan nan 220 221 222 223 226 229 230 232 235 236 237 242 245 246 246 245 245 247 249 250 255 264 264 265 256 251 251 251 249 248 251 252 254 258 261 262 260 259 261 264 262 258 256 257 259 255 251 250 253 256 256 255 255 258 263 266 264 261 262 265 268 271 272 274 276 278 279 281 283 284 285 286 287 289 288 287 287 288 289
nan nan nan nan nan nan nan 219 222 225 229 233 235 234 236 239 240 240 245 248 248 247 246 246 247 249 250 255 261 265 259 254 252 254 253 250 248 248 247 248 252 256 255 251 249 251 254 253 251 248 249 248 246 249 255 258 259 260 264 266 267 263 260 260 262 264 267 270 272 273 275 277 277 278 279 280 281 282 283 283 282 282 284 285 286
nan nan nan nan nan nan nan nan 223 226 230 235 240 241 241 242 243 243 242 246 251 252 251 252 253 252 251 250 255 260 260 259 258 257 255 252 248 248 248 249 250 252 254 254 253 252 252 254 254 252 249 247 245 243 245 248 251 257 261 262 259 258 261 264 266 266 270 273 274 273 273 274 275 276 277 278 279 279 278 279 280 281 282 282 283
nan nan nan nan nan nan nan nan nan 229 232 238 243 245 246 246 246 246 246 244 244 247 249 250 248 247 246 245 247 251 253 254 255 255 255 253 249 247 248 249 250 251 253 255 256 256 255 255 257 255 251 248 246 243 241 243 247 250 253 258 260 262 265 266 266 267 270 273 274 274 273 274 273 274 275 276 276 278 278 280 282 283 282 282 283
nan nan nan nan nan nan nan nan nan 234 236 240 243 245 246 248 248 248 249 249 246 245 246 246 246 247 247 249 250 251 252 254 254 253 250 246 244 245 246 248 249 250 251 254 256 256 255 256 257 254 250 250 249 245 242 244 246 247 248 251 255 261 263 263 264 269 272 274 275 275 274 272 272 272 274 275 275 277 278 279 279 280 281 282 282
nan nan nan nan nan nan nan nan nan nan 239 242 244 244 246 247 247 248 249 250 250 246 245 246 247 245 245 247 250 252 251 251 251 250 248 245 243 243 244 246 247 248 249 252 253 253 253 255 256 250 245 246 251 250 246 243 242 245 248 250 254 258 262 263 265 269 271 271 272 272 272 272 272 272 272 273 274 275 276 276 277 279 280 280 281
nan nan nan nan nan nan nan nan nan nan nan 242 245 245 244 246 250 249 248 250 251 249 245 243 245 246 245 245 248 250 251 252 252 251 249 247 244 241 240 241 243 246 248 250 252 253 253 254 255 253 247 244 248 250 246 246 248 251 253 252 254 259 263 264 266 267 269 268 267 267 269 271 272 272 272 273 274 275 276 277 277 277 279 279 280
nan nan nan nan nan nan nan nan nan nan nan nan 247 247 246 246 249 251 nan 250 252 nan 245 243 243 244 244 246 248 250 251 253 253 251 250 249 247 245 241 238 239 243 247 249 251 252 253 252 252 251 249 248 247 248 248 248 251 252 254 255 257 259 260 261 264 265 265 266 266 268 269 269 270 270 270 271 nan nan nan nan nan nan nan nan nan
nan nan nan nan nan nan nan nan nan nan nan nan 249 248 246 246 248 nan nan 247 250 250 246 244 244 244 242 244 249 252 253 254 255 255 253 251 248 245 243 240 237 237 242 246 247 248 249 250 252 252 248 245 244 245 246 248 249 249 253 255 255 256 257 257 258 260 262 262 262 264 266 267 267 268 270 nan nan 273 274 nan nan 278 279 279 280
nan nan nan nan nan nan nan nan nan nan nan nan nan 248 244 242 245 248 nan nan nan nan 247 247 249 249 247 246 249 252 253 254 253 253 253 253 252 249 245 241 238 238 238 241 244 245 246 249 251 251 249 246 243 240 240 243 247 250 253 253 253 255 256 259 260 259 260 262 262 263 265 265 265 266 nan nan nan nan nan nan nan nan nan nan nan